Location: North Evanston
(42.0634°N, 87.6976°W)
Time: 21:41:06
(UTC+00:00)

Transit 2A - Pass Details

Date: 11 May 2026
Orbit: 595 x 948 km, 66.7° (Epoch: 9 June)

Event Time Altitude Azimuth Distance (km) Brightness Sun altitude
Rises 22:42:12 0° 219° (SW) 3,597 10.0 23.9°
Reaches altitude 10° 22:44:49 10° 222° (SW) 2,640 9.4 23.4°
Maximum altitude 22:50:57 62° 303° (WNW) 1,009 7.5 22.3°
Drops below altitude 10° 22:56:43 10° 24° (NNE) 2,487 8.5 21.2°
Sets 22:59:08 0° 28° (NNE) 3,374 9.1 20.8°
